[[{"header":{"parameterUnit":"m.s-1","parameterCategory":1,"la1":30.2991,"la2":30.254,"lo1":-89.0895,"lo2":-89.0444,"dy":0.0017,"dx":0.0017,"nx":28,"ny":28,"refTime":"2023-09-27T03:00:00:Z","depth":0,"parameterNumber":2,"parameterNumberName":"U-component_of_WINDS"},"data":[0,0,0,0,0,0,0,0,0,0,0,0,0,0,0,0,0,0,0,0,0,0,0,0,0,0,0,0,0,0,0,0,0,0,0,0,0,0,0,0,0,0,0,0,0,0,0,0,0,0,0,0,0,0,0,0,0,0,-3.4564,-3.4565,0,-3.4599,-3.46,-3.46,-3.4527,-3.4525,-3.4523,-3.452,-3.4562,-3.4565,-3.4568,0,0,0,0,0,0,0,0,0,0,0,0,0,-3.4442,-3.4445,-3.4564,-3.4565,-3.4565,-3.4599,-3.46,-3.46,-3.4528,-3.4525,-3.4522,-3.4519,-3.4561,-3.4565,-3.4569,0,0,0,0,0,0,0,0,0,0,0,0,0,-3.4488,-3.4446,-3.4564,-3.4533,-3.4531,-3.4599,-3.46,-3.46,-3.4528,-3.4525,-3.4521,-3.4518,-3.4559,-3.4564,-3.4569,-3.4671,0,0,-3.4584,-3.4587,0,0,0,0,0,0,0,0,-3.4486,-3.4493,-3.4537,-3.4535,-3.4533,-3.4555,-3.4572,-3.4624,-3.4529,-3.4529,-3.452,-3.4516,-3.4563,-3.4567,-3.4582,-3.4673,-3.4675,-3.4585,-3.4588,-3.459,-3.4591,0,0,0,0,0,0,0,-3.4483,-3.4491,-3.4578,-3.4538,-3.4535,-3.452,-3.4522,-3.4581,-3.4566,-3.4529,-3.4524,-3.4529,-3.4561,-3.4577,-3.4582,-3.4676,-3.4585,-3.4589,-3.4592,-3.4594,-3.4857,-3.4861,0,0,0,0,0,0,-3.4483,-3.4489,-3.4577,-3.4579,-3.45,-3.4525,-3.4528,-3.4552,-3.4565,-3.4564,-3.4532,-3.4525,-3.4571,-3.4577,-3.4584,-3.4707,-3.459,-3.4595,-3.4598,-3.4853,-3.4858,-3.4862,0,0,0,0,0,0,-3.448,-3.4491,-3.4576,-3.4533,-3.4542,-3.4531,-3.4558,-3.4554,-3.457,-3.4567,-3.4564,-3.4551,-3.4568,-3.4577,-3.4651,-3.4707,-3.4597,-3.4601,-3.4849,-3.4855,-3.486,-3.4953,0,0,0,0,0,0,-3.4477,-3.4491,-3.4527,-3.4534,-3.4545,-3.464,-3.4562,-3.4557,-3.4578,-3.457,-3.4584,-3.4583,-3.4566,-3.4644,-3.4656,-3.4712,-3.4605,-3.4843,-3.4851,-3.4858,-3.4945,-3.4961,-3.4975,0,0,0,0,0,-3.4473,-3.4552,-3.453,-3.4541,-3.459,-3.4643,-3.465,-3.4627,-3.4583,-3.4622,-3.462,-3.4583,-3.4699,-3.4652,-3.4665,-3.4724,-3.484,-3.4849,-3.4858,-3.4938,-3.4958,-3.4975,0,0,0,0,0,0,-3.4554,-3.4553,-3.4527,-3.4611,-3.4628,-3.4631,-3.4678,-3.4648,-3.4679,-3.467,-3.4642,-3.4646,-3.4727,-3.4732,-3.468,-3.4825,-3.4762,-3.4774,-3.4819,-3.4838,-3.4853,-3.4851,-3.4609,0,0,0,0,0,-3.4581,-3.4622,-3.462,-3.4694,-3.4704,-3.469,-3.4712,-3.4693,-3.471,-3.4717,-3.4721,-3.4741,-3.4782,-3.481,-3.4847,-3.4945,-3.4949,-3.4992,-3.5007,-3.502,-3.5031,-3.5087,-3.5107,-3.4892,-3.4892,-3.4892,0,0,-3.4639,-3.4643,-3.4671,-3.4711,-3.4721,-3.4768,-3.4696,-3.4747,-3.4782,-3.4726,-3.4796,-3.48,-3.4821,-3.4908,-3.4946,-3.4915,-3.5092,-3.5031,-3.5041,-3.5046,-3.5098,-3.5119,-3.5137,-3.4898,-3.4897,-3.4896,0,0,-3.4767,-3.4773,-3.4837,-3.485,-3.4867,-3.4857,-3.4873,-3.4882,-3.4882,-3.4951,-3.4911,-3.4954,-3.5024,-3.5042,-3.506,-3.5198,-3.5167,-3.5212,-3.5292,-3.5347,-3.5364,-3.5379,-3.5432,-3.5451,-3.5223,-3.5223,-3.5223,0,-3.4837,-3.4902,-3.4874,-3.4929,-3.4949,-3.4899,-3.4966,-3.498,-3.5009,-3.5026,-3.4989,-3.5079,-3.5089,-3.5182,-3.5216,-3.5231,-3.5251,-3.521,-3.5363,-3.5378,-3.5392,-3.5442,-3.5462,-3.5228,-3.5228,-3.5227,-3.5227,0,-3.4989,-3.5035,-3.5085,-3.5114,-3.514,-3.52,-3.5184,-3.5214,-3.5194,-3.519,-3.5264,-3.5274,-3.5315,-3.5335,-3.5315,-3.5426,-3.5407,-3.5367,-3.5304,-3.5418,-3.5465,-3.5484,-3.5236,-3.5234,-3.5233,-3.5231,0,0,-3.5168,-3.5182,-3.5201,-3.5215,-3.5232,-3.5269,-3.5329,-3.5367,-3.5395,-3.5418,-3.5469,-3.5532,-3.5497,-3.5518,-3.55,-3.5548,-3.5661,-3.5503,-3.5503,-3.5535,-3.5788,-3.5819,-3.5842,-3.564,-3.5643,-3.5646,-3.5788,0,-3.5298,-3.5398,-3.5376,-3.5477,-3.5522,-3.5476,-3.5529,-3.5547,-3.5545,-3.5585,-3.5584,-3.563,-3.5578,-3.5591,-3.5636,-3.5638,-3.5712,-3.5627,-3.5691,-3.5694,-3.5689,-3.5865,-3.5897,-3.603,-3.5805,-3.5808,-3.5811,0,-3.5461,-3.549,-3.5595,-3.5607,-3.5625,-3.5673,-3.5708,-3.5746,-3.5767,-3.5762,-3.5787,-3.5761,-3.5824,-3.5759,-3.5848,-3.5791,-3.5816,-3.5822,-3.5826,-3.5833,-3.576,-3.588,-3.6071,-3.6093,-3.5838,-3.5836,-3.5834,0,-3.5586,-3.565,-3.5722,-3.5735,-3.5751,-3.5786,-3.5794,-3.5811,-3.5837,-3.5869,-3.5886,-3.5925,-3.5947,-3.598,-3.5967,-3.592,-3.606,-3.5993,-3.6061,-3.6062,-3.6094,-3.6092,-3.6295,-3.6107,-3.6106,-3.6106,-3.6105,0,-3.5733,-3.58,-3.5779,-3.5823,-3.5898,-3.5873,-3.5949,-3.5952,-3.5969,-3.6015,-3.5979,-3.6024,-3.6003,-3.6048,-3.6039,-3.6116,-3.6126,-3.6127,-3.6124,-3.6131,-3.6132,-3.6149,-3.614,-3.6111,-3.611,-3.6109,-3.6108,0,-3.5885,-3.5872,-3.5948,-3.5957,-3.5961,-3.6017,-3.6025,-3.6069,-3.6065,-3.6125,-3.6138,-3.6133,-3.6184,-3.6174,-3.6231,-3.6225,-3.6323,-3.6307,-3.6316,-3.6313,-3.6383,-3.6378,-3.6606,-3.6636,-3.6426,-3.6428,-3.6429,0,-3.5981,-3.6031,-3.6046,-3.6074,-3.6085,-3.613,-3.6156,-3.6135,-3.6165,-3.6194,-3.6235,-3.6283,-3.632,-3.6405,-3.6409,-3.6453,-3.644,-3.6517,-3.6447,-3.6454,-3.6445,-3.6443,-3.645,-3.6532,-3.6534,-3.6536,-3.6538,0,-3.6153,-3.6146,-3.6183,-3.6221,-3.6253,-3.6282,-3.6307,-3.6333,-3.6314,-3.635,-3.6401,-3.643,-3.6489,-3.6539,-3.6581,-3.6592,-3.6564,-3.656,-3.6579,-3.6588,-3.6591,-3.6594,-3.6356,-3.6555,-3.6553,-3.6552,-3.6551,-3.655,-3.6282,-3.6326,-3.6344,-3.6388,-3.6405,-3.6431,-3.6473,-3.6475,-3.6516,-3.6561,-3.6547,-3.6607,-3.6631,-3.6684,-3.6701,-3.675,-3.6721,-3.6748,-3.6755,-3.6762,-3.6772,-3.6582,-3.6757,-3.6756,-3.6756,-3.6756,-3.6755,0,-3.6455,-3.6465,-3.6506,-3.6543,-3.6579,-3.6547,-3.6574,-3.6608,-3.666,-3.6683,-3.6721,-3.6783,-3.6832,-3.684,-3.6887,-3.6925,-3.6913,-3.6938,-3.6936,-3.694,-3.6793,-3.6774,-3.6947,-3.6947,-3.6947,-3.6947,-3.6947,-3.6947,-3.6549,-3.6623,-3.6618,-3.6702,-3.6711,-3.6768,-3.6787,-3.6812,-3.6831,-3.6901,-3.6941,-3.6945,-3.6963,-3.7012,-3.7057,-3.7058,-3.7079,-3.711,-3.7107,-3.6969,-3.695,-3.6932,-3.6914,-3.7114,-3.7114,-3.725,-3.7251,-3.7252]},{"header":{"parameterUnit":"m.s-1","parameterCategory":1,"la1":30.2991,"la2":30.254,"lo1":-89.0895,"lo2":-89.0444,"dy":0.0017,"dx":0.0017,"nx":28,"ny":28,"refTime":"2023-09-27T03:00:00:Z","depth":0,"parameterNumber":3,"parameterNumberName":"V-component_of_WINDS"},"data":[0,0,0,0,0,0,0,0,0,0,0,0,0,0,0,0,0,0,0,0,0,0,0,0,0,0,0,0,0,0,0,0,0,0,0,0,0,0,0,0,0,0,0,0,0,0,0,0,0,0,0,0,0,0,0,0,0,0,0.681,0.6809,0,0.6763,0.6763,0.6762,0.6748,0.6748,0.6748,0.6748,0.6696,0.6695,0.6693,0,0,0,0,0,0,0,0,0,0,0,0,0,0.6881,0.688,0.681,0.6809,0.6808,0.6763,0.6763,0.6762,0.6748,0.6748,0.6748,0.6748,0.6697,0.6695,0.6693,0,0,0,0,0,0,0,0,0,0,0,0,0,0.6844,0.6879,0.681,0.6796,0.6794,0.6763,0.6763,0.6762,0.6747,0.6748,0.6748,0.6749,0.6697,0.6695,0.6693,0.6671,0,0,0.6685,0.6684,0,0,0,0,0,0,0,0,0.6846,0.6841,0.6799,0.6797,0.6795,0.6762,0.6768,0.6731,0.6747,0.6765,0.6748,0.6749,0.6717,0.6713,0.6704,0.6668,0.6666,0.6685,0.6683,0.6682,0.6682,0,0,0,0,0,0,0,0.6848,0.6843,0.6791,0.6798,0.6796,0.679,0.6785,0.6761,0.674,0.6764,0.6762,0.6757,0.6716,0.6706,0.6702,0.6665,0.6685,0.6683,0.6681,0.668,0.6607,0.6606,0,0,0,0,0,0,0.6854,0.6845,0.6793,0.679,0.6822,0.6789,0.6783,0.6772,0.674,0.6735,0.6757,0.6757,0.671,0.6705,0.67,0.6671,0.6682,0.668,0.6679,0.6607,0.6607,0.6606,0,0,0,0,0,0,0.6855,0.6849,0.6794,0.6817,0.681,0.6787,0.6774,0.6771,0.676,0.6735,0.6731,0.6751,0.671,0.6704,0.6678,0.6669,0.6679,0.6677,0.6608,0.6607,0.6606,0.6613,0,0,0,0,0,0,0.6858,0.685,0.6843,0.6817,0.6809,0.6774,0.6774,0.677,0.6757,0.6756,0.6728,0.6724,0.671,0.6682,0.6676,0.6666,0.6675,0.6609,0.6608,0.6607,0.6614,0.6613,0.6612,0,0,0,0,0,0.686,0.6846,0.6843,0.6836,0.6799,0.6774,0.6769,0.6755,0.6756,0.6748,0.6731,0.6725,0.6671,0.6679,0.6672,0.6662,0.6609,0.6608,0.6607,0.6614,0.6613,0.6612,0,0,0,0,0,0,0.687,0.6843,0.6838,0.6816,0.6798,0.6772,0.6761,0.6754,0.6734,0.6734,0.6716,0.6709,0.6684,0.667,0.668,0.6638,0.664,0.6637,0.6648,0.6646,0.6646,0.6649,0.6673,0,0,0,0,0,0.687,0.6853,0.6829,0.6812,0.6803,0.6783,0.6772,0.6762,0.6742,0.6734,0.6716,0.6695,0.6673,0.6659,0.6638,0.6612,0.6604,0.6601,0.66,0.66,0.6597,0.658,0.6578,0.6602,0.6602,0.6602,0,0,0.6869,0.6852,0.6842,0.6813,0.6798,0.6779,0.6777,0.6758,0.6743,0.673,0.6705,0.6691,0.6666,0.664,0.6627,0.6627,0.6589,0.6598,0.6598,0.6596,0.6579,0.6577,0.6575,0.6602,0.6602,0.6602,0,0,0.6858,0.6844,0.6827,0.6812,0.6789,0.6776,0.6772,0.6747,0.6737,0.6711,0.6701,0.6682,0.6646,0.6628,0.6615,0.6595,0.6587,0.6588,0.6584,0.6567,0.6566,0.6564,0.6555,0.6552,0.6586,0.6586,0.6586,0,0.6859,0.6832,0.6819,0.68,0.6786,0.6775,0.6756,0.6742,0.6713,0.6703,0.6704,0.6657,0.664,0.6608,0.6603,0.6593,0.6586,0.6591,0.6567,0.6565,0.6563,0.6555,0.6552,0.6586,0.6586,0.6586,0.6586,0,0.6834,0.6815,0.6804,0.6777,0.6762,0.6744,0.6726,0.6712,0.6703,0.669,0.6662,0.6641,0.6615,0.6607,0.6598,0.6573,0.6574,0.6571,0.6573,0.6561,0.6553,0.655,0.6587,0.6587,0.6587,0.6587,0,0,0.6828,0.6794,0.679,0.6776,0.675,0.6734,0.6714,0.6689,0.6677,0.6657,0.6638,0.6607,0.6604,0.6588,0.6577,0.6563,0.6547,0.6562,0.6561,0.6559,0.6515,0.6516,0.6513,0.6542,0.6541,0.6541,0.6517,0,0.6813,0.6778,0.6764,0.6735,0.6716,0.6704,0.6686,0.6667,0.6653,0.6633,0.6617,0.6595,0.6594,0.6584,0.657,0.6552,0.6537,0.6553,0.6522,0.6521,0.6527,0.6509,0.651,0.6489,0.6514,0.6513,0.6513,0,0.679,0.677,0.6739,0.6713,0.6705,0.6689,0.6664,0.6647,0.6623,0.6614,0.6596,0.6586,0.6561,0.6565,0.653,0.6542,0.6528,0.6517,0.6515,0.6511,0.6515,0.6502,0.6482,0.6478,0.6508,0.6508,0.6508,0,0.6787,0.6753,0.6729,0.6718,0.6688,0.6677,0.6663,0.6641,0.6626,0.6604,0.6593,0.6568,0.6554,0.6534,0.6516,0.6521,0.6482,0.6485,0.6472,0.6472,0.6463,0.6464,0.6439,0.6457,0.6457,0.6457,0.6457,0,0.677,0.6751,0.6727,0.6713,0.669,0.6674,0.6652,0.6637,0.6617,0.6597,0.6586,0.6567,0.6546,0.6524,0.6509,0.6482,0.6476,0.6466,0.6462,0.6466,0.6467,0.6456,0.6456,0.6456,0.6456,0.6456,0.6457,0,0.6763,0.6747,0.672,0.6693,0.6686,0.667,0.6646,0.663,0.6616,0.6592,0.6585,0.6561,0.6535,0.6515,0.6481,0.6471,0.6441,0.6438,0.6449,0.6447,0.6434,0.6435,0.64,0.6394,0.6417,0.6417,0.6417,0,0.6754,0.6739,0.671,0.6697,0.6684,0.6663,0.6647,0.663,0.6614,0.6586,0.6573,0.6546,0.6524,0.6482,0.646,0.6433,0.6428,0.6418,0.6424,0.6428,0.6426,0.6426,0.6424,0.6416,0.6416,0.6416,0.6416,0,0.6737,0.6729,0.6709,0.6685,0.6667,0.6647,0.6627,0.6616,0.6595,0.6577,0.6551,0.6534,0.6498,0.6471,0.6442,0.6425,0.6416,0.6414,0.641,0.6413,0.642,0.6414,0.6445,0.6415,0.6415,0.6415,0.6415,0.6415,0.6727,0.6713,0.669,0.6667,0.665,0.663,0.6614,0.6597,0.6575,0.6546,0.6536,0.6508,0.6483,0.6443,0.6426,0.6402,0.6402,0.6396,0.6394,0.6392,0.6391,0.6425,0.6397,0.6397,0.6397,0.6397,0.6397,0,0.6709,0.6693,0.6672,0.6644,0.6625,0.662,0.6596,0.658,0.6556,0.6534,0.6512,0.648,0.6453,0.6429,0.64,0.6386,0.6381,0.6379,0.6379,0.6374,0.6394,0.64,0.6383,0.6383,0.6383,0.6383,0.6383,0.6383,0.6697,0.6672,0.6661,0.6625,0.6609,0.6583,0.657,0.6551,0.6533,0.6498,0.6476,0.6461,0.6437,0.6406,0.638,0.6373,0.6362,0.6361,0.6353,0.6372,0.6373,0.6375,0.6381,0.6359,0.6359,0.6335,0.6335,0.6335]}]]